Regional Weather Roundup
Issued by NWS

Home | Current Version | Previous Version | Graphics & Text | Print | Product List | Glossary Off
Versions: 1 2 3 4 5 6 7 8 9 10 11 12 13 14 15 16 17 18 19 20 21 22 23 24 25 26 27 28 29 30 31 32 33 34 35 36 37 38 39 40 41 42 43 44 45 46 47 48 49 50

000
ASUS43 KLSX 271859
RWRMO

WEATHER SUMMARY FOR MISSOURI
NATIONAL WEATHER SERVICE SPRINGFIELD MO
200 PM CDT MON MAR 27 2017

NOTE: "FAIR" INDICATES FEW OR NO CLOUDS BELOW 12,000 FEET WITH NO
       SIGNIFICANT WEATHER AND/OR OBSTRUCTIONS TO VISIBILITY.
       CURRENT SKY AND/OR WEATHER CONDITIONS ARE NOT AVAILABLE FOR
       CHILLICOTHE AND FARMINGTON.

MOZ001>031-035>038-043-044-053-054-272000-
...NORTHERN AND WESTERN MISSOURI...

CITY           SKY/WX    TMP DP  RH WIND       PRES   REMARKS
KANSAS CTY INT DRIZZLE   50  48  93 N14       29.93F
KANSAS C DTWN  CLOUDY    51  48  89 N10       29.92S
LEE`S SUMMIT   CLOUDY    50  48  93 N12       29.92S
ST JOSEPH      CLOUDY    51  47  86 N9        29.95F
CHILLICOTHE      N/A     50  47  89 N9        29.92S
KIRKSVILLE       N/A     51  50  96 N9        29.90S

$$
MOZ066>068-077>081-088>096-101>105-272000-
...SOUTHWEST MISSOURI...

CITY           SKY/WX    TMP DP  RH WIND       PRES   REMARKS
SPRINGFIELD    CLOUDY    61  54  77 W9        29.84S
JOPLIN         CLOUDY    54  52  93 NW10      29.90R
BRANSON        PTSUNNY   61  55  82 NW9       29.85F

$$
MOZ032>034-039>042-045>050-055>058-069>072-272000-
...CENTRAL MISSOURI...

CITY           SKY/WX    TMP DP  RH WIND       PRES   REMARKS
COLUMBIA       LGT RAIN  52  52 100 E6        29.84F FOG
JEFFERSON CITY LGT RAIN  57  53  86 NE7       29.83F
ROLLA          CLOUDY    60  56  86 VRB5      29.81S
SEDALIA        CLOUDY    53  50  89 N8        29.88R
WARRENSBURG    CLOUDY    52  46  82 NW9       29.89S
OSAGE BEACH    CLOUDY   N/A N/A N/A NW8       29.83S

$$
MOZ051-052-059>065-272000-
...EAST CENTRAL MISSOURI...

CITY           SKY/WX    TMP DP  RH WIND       PRES   REMARKS
ST LOUIS INTL  CLOUDY    57  53  86 N8        29.83F FOG
SPIRIT OF STL  CLOUDY    55  54  96 NW7       29.83S FOG
ST CHARLES     CLOUDY    56  54  93 NE7       29.83F

$$
MOZ072>076-082>087-097>100-106>115-272000-
...SOUTH CENTRAL AND SOUTHEAST MISSOURI...

CITY           SKY/WX    TMP DP  RH WIND       PRES   REMARKS
CAPE GIRARDEAU CLOUDY    59  55  87 SE6       29.80F
FARMINGTON     CLOUDY    62  55  77 W8        29.82F
POPLAR BLUFF   CLOUDY    59  57  93 S5        29.81F
WEST PLAINS    CLOUDY    60  55  83 SW8       29.83F

$$




USA.gov is the U.S. government's official web portal to all federal, state and local government web resources and services.